Location: Gleizolles
(44.4833°N, 6.7667°E)
Time: 15:19:03
(UTC+00:00)

deb Explorer IX - Pass Details

Date: 26 June 2024
Orbit: 510 x 878 km, 38.7° (Epoch: 21 July)

Event Time Altitude Azimuth Distance (km) Brightness Sun altitude
Rises 06:03:31 0° 223° (SW) 2,642 ? 20.9°
Reaches altitude 10° 06:06:03 10° 207° (SSW) 1,792 ? 21.3°
Maximum altitude 06:09:11 21° 157° (SSE) 1,279 ? 21.9°
Drops below altitude 10° 06:12:32 10° 107° (ESE) 1,929 ? 22.4°
Sets 06:15:23 0° 92° (E) 2,908 ? 22.9°
